ATHENOXAT 1 (41168 NORAD) Tracking and Keplerian Element Data

This shows tracking and keplerian element data for the satellite.

Feedback or suggestion? Click here.




ElementValue
Catalog41168
NameATHENOXAT 1
Epoch Orbit41756
Epoch Day176.15142602
Epoch Year2023
RAAN158.6474
Inclination14.9849
Eccentricity0.0006242
Argument of Perigee192.8766
Mean Anonmoly167.1402
Mean Motion15.63086202
Decay Rate0.00256119
L11 41168U 15077C 23176.15142602 .00256119 00000+0 25910-2 0 9992
L22 41168 14.9849 158.6474 0006242 192.8766 167.1402 15.63086202417562



Live tracking and technical data element details for ATHENOXAT 1 (NORAD 41168). ATHENOXAT 1 can be tracked NOW for your location showing map with azimuth and elevation plus other details from your city location.







IsCatalogInMostPopularTable: catalog: 41168, numindb: 556
Update: records affected: 1



GetName: 41168 ATHENOXAT 1

Hit Count: updated at: Thu, 23 Jan 2025 16:41:31 GMT